Location: Unspecified
(0.0000°N, 0.0000°E)
Time: 11:17:37
(UTC+00:00)

Transit 2A Rocket - Pass Details

Date: 21 November 2019
Orbit: 594 x 909 km, 66.7° (Epoch: 13 December)

Event Time Altitude Azimuth Distance (km) Brightness Sun altitude
Rises 08:25:25 0° 311° (NW) 3,033 7.6 37.1°
Reaches altitude 10° 08:28:12 10° 294° (WNW) 2,178 7.0 37.7°
Maximum altitude 08:31:47 20° 248° (WSW) 1,678 6.6 38.5°
Drops below altitude 10° 08:35:36 10° 202° (SSW) 2,337 7.7 39.4°
Sets 08:38:45 0° 185° (S) 3,332 8.5 40.1°
